Location: Fort Lauderdale
(26.1220°N, 80.1440°W)
Time: 02:40:25
(UTC-04:00)

N. Korean satellite - Visible Passes

Search period start: 19 October 2019 00:00
Search period end: 29 October 2019 00:00
Orbit: 455 x 508 km, 97.2° (Epoch: 18 October)

Date Brightness Start Highest point End Pass type
(mag) Time Alt. Az. Time Alt. Az. Time Alt. Az.
19 Oct 10.6 19:39:51 10° WSW 19:40:31 10° W 19:41:12 10° W visible
20 Oct 9.2 19:12:17 10° SSW 19:15:08 25° W 19:18:00 10° NW visible
21 Oct 8.3 06:45:36 10° NNE 06:49:03 39° E 06:52:31 10° S visible
22 Oct 9.9 06:21:13 10° NE 06:23:42 17° E 06:26:12 10° SE visible
23 Oct 10.1 19:30:49 10° SW 19:32:38 14° W 19:34:27 10° WNW visible
24 Oct 8.6 19:04:09 10° SSW 19:07:15 33° W 19:10:23 10° NNW visible
25 Oct 8.8 06:37:55 10° NE 06:41:13 31° E 06:44:31 10° SSE visible
26 Oct 10.2 06:13:56 10° ENE 06:15:51 14° E 06:17:45 10° SE visible
27 Oct 9.8 19:22:19 10° SW 19:24:43 18° W 19:27:08 10° NW visible
28 Oct 7.4 06:55:01 10° NNE 06:58:40 58° E 07:02:19 10° S visible
